{"data":{"norad_id":61682,"epoch":"2026-05-25T03:08:52.784736Z","epoch_age_seconds":59601,"freshness":"FRESH","line1":"1 61682U 24193X   26145.13116649  .00006386  00000+0  22750-3 0  9992","line2":"2 61682  53.1587  95.6914 0001055  69.7657 290.3457 15.30205451 88236","mean_motion":15.30205451,"eccentricity":0.0001055,"inclination_deg":53.1587,"raan_deg":95.6914,"arg_perigee_deg":69.7657,"mean_anomaly_deg":290.3457,"bstar":0.0002275,"rev_number":8823,"period_min":94.1050104781,"perigee_km":474.47576683795,"apogee_km":475.92182069043,"semimajor_km":6853.3357937642,"source":"CELESTRAK","updated_at":"2026-05-25T13:38:19.438832Z"}}